Amateur Radio Satellites - All Passes

Search period start: 20 June 2013 09:01
Search period end: 21 June 2013 09:01
Location: Winter Haven, 28.0220°N, 81.7330°W

Satellite Date Start Highest point End Downlink Frequencies (MHz)
Time Altitude Azimuth
JAS-1B 20 Jun 09:45:42 09:51:11 36° 287° (WNW) 09:57:27 435.800 - 435.900 CW/SSB
Sapphire 20 Jun 09:45:43 09:47:16 11° 53° (NE) 09:48:49 437.095 MHz 1200 baud AX-25 AFSK
HO-68 20 Jun 09:48:06 09:53:34 23° 97° (E) 09:59:00 435.675 MHz FM
SO-67 20 Jun 10:05:27 10:06:45 12° 289° (WNW) 10:08:03 435.3500 MHz FM
SO-50 20 Jun 10:12:18 10:14:54 15° 54° (NE) 10:17:28 436.795 FM
PCSat 20 Jun 10:51:17 10:56:34 51° 64° (ENE) 11:01:48 145.825 MHz
RS-15 20 Jun 11:04:03 11:15:25 48° 108° (ESE) 11:26:20 29.354 - 29.394 USB, Beacon 29.352 USB
JAS-2 20 Jun 11:06:08 11:11:23 84° 283° (WNW) 11:16:33 435.800 - 435.900 CW/SSB, 435.910 FM
OPAL 20 Jun 11:15:58 11:19:24 19° 98° (E) 11:22:50 ?
Sapphire 20 Jun 11:25:48 11:31:13 77° 248° (WSW) 11:36:37 437.095 MHz 1200 baud AX-25 AFSK
Oscar 11 20 Jun 11:30:56 11:35:13 56° 284° (WNW) 11:39:28 145.825 FM, Beacon 2401.500 USB
HO-68 20 Jun 11:34:30 11:41:21 50° 289° (WNW) 11:48:12 435.675 MHz FM
SO-50 20 Jun 11:51:26 11:55:38 40° 247° (WSW) 11:59:49 436.795 FM
PCSat 20 Jun 12:36:39 12:39:28 14° 256° (WSW) 12:42:17 145.825 MHz
OPAL 20 Jun 12:53:47 12:58:16 35° 289° (WNW) 13:02:48 ?
RS-15 20 Jun 13:16:38 13:27:47 42° 304° (NW) 13:38:34 29.354 - 29.394 USB, Beacon 29.352 USB
UOSAT-12 20 Jun 13:25:15 13:29:23 32° 59° (ENE) 13:33:30 437.025 FM, 437.400 FM
Oscar 19 20 Jun 13:53:10 13:57:27 27° 71° (ENE) 14:01:44 437.125 CW, 437.150 USB
ITAMSAT 1 20 Jun 14:20:08 14:25:00 42° 73° (ENE) 14:29:53 435.822 SSB
AO-27 20 Jun 14:21:30 14:26:25 44° 73° (ENE) 14:31:21 436.795 MHz FM
Oscar 16 20 Jun 14:37:27 14:42:38 83° 258° (WSW) 14:47:50 437.025 USB, Beacon 2401.1428
AO-Echo 20 Jun 14:47:09 14:50:50 23° 71° (ENE) 14:54:33 ?
ISS 20 Jun 14:52:04 14:55:17 53° 130° (SE) 14:58:29 145.800 FM
Uribyol 2 20 Jun 14:53:00 14:58:12 82° 257° (WSW) 15:03:27 436.500 FM
UOSAT-12 20 Jun 15:06:05 15:09:16 19° 251° (WSW) 15:12:27 437.025 FM, 437.400 FM
Uosat F 20 Jun 15:08:56 15:11:33 14° 67° (ENE) 15:14:10 435.120 FM
TMSAT-1 20 Jun 15:25:32 15:27:51 13° 67° (ENE) 15:30:09 436.925 FM
Oscar 19 20 Jun 15:32:26 15:36:40 26° 263° (W) 15:40:54 437.125 CW, 437.150 USB
ITAMSAT 1 20 Jun 16:01:22 16:04:35 17° 265° (W) 16:07:48 435.822 SSB
AO-27 20 Jun 16:03:03 16:06:02 15° 265° (W) 16:09:03 436.795 MHz FM
Gurwin Techsat 1B 20 Jun 16:03:29 16:08:38 54° 74° (ENE) 16:13:48 435.225 FM
KITSAT 1 20 Jun 16:22:16 16:28:53 29° 106° (ESE) 16:35:30 435.175 FM
AO-7 20 Jun 16:22:40 16:29:06 26° 63° (ENE) 16:35:32 29.400 - 29.500 MHz
AO-Echo 20 Jun 16:25:42 16:29:28 24° 263° (W) 16:33:18 ?
ISS 20 Jun 16:31:13 16:32:11 11° 324° (NW) 16:33:09 145.800 FM
Uosat F 20 Jun 16:45:06 16:49:54 47° 260° (W) 16:54:44 435.120 FM
TMSAT-1 20 Jun 17:02:02 17:07:13 57° 259° (W) 17:12:27 436.925 FM
Gurwin Techsat 1B 20 Jun 17:46:30 17:48:48 13° 266° (W) 17:51:06 435.225 FM
AO-7 20 Jun 18:13:11 18:21:17 57° 257° (WSW) 18:29:28 29.400 - 29.500 MHz
KITSAT 1 20 Jun 18:16:10 18:23:50 48° 299° (WNW) 18:31:36 435.175 FM
JAS-1B 20 Jun 18:38:26 18:40:06 11° 66° (ENE) 18:41:42 435.800 - 435.900 CW/SSB
MaSat-1 20 Jun 18:46:39 18:51:30 24° 108° (ESE) 18:55:36 437.345 MHz
Hamsat 20 Jun 18:59:49 19:02:57 20° 71° (ENE) 19:06:06 145.90 MHz
STRAND 1 20 Jun 19:21:46 19:26:38 42° 100° (E) 19:31:28 ?
PANSAT 20 Jun 19:22:06 19:24:36 16° 154° (SSE) 19:27:05 not established
RS-15 20 Jun 20:15:39 20:24:32 27° 49° (NE) 20:33:14 29.354 - 29.394 USB, Beacon 29.352 USB
JAS-1B 20 Jun 20:22:49 20:30:17 82° 256° (WSW) 20:36:34 435.800 - 435.900 CW/SSB
MaSat-1 20 Jun 20:27:58 20:33:15 32° 292° (WNW) 20:37:32 437.345 MHz
SO-67 20 Jun 20:32:11 20:35:44 87° 78° (ENE) 20:39:19 435.3500 MHz FM
Hamsat 20 Jun 20:35:17 20:38:48 24° 263° (W) 20:42:22 145.90 MHz
PANSAT 20 Jun 21:00:49 21:04:37 52° 164° (SSE) 21:08:24 not established
STRAND 1 20 Jun 21:02:14 21:05:26 17° 292° (WNW) 21:08:38 ?
JAS-2 20 Jun 21:10:40 21:16:11 23° 69° (ENE) 21:21:19 435.800 - 435.900 CW/SSB, 435.910 FM
Saudisat 1A 20 Jun 21:17:51 21:21:32 25° 110° (ESE) 21:25:16 436.775 MHz
AO-40 20 Jun 21:48:10 04:00:16 54° 171° (S) 07:41:40 Beacon 2401.320
HO-68 20 Jun 21:54:44 22:01:44 62° 72° (ENE) 22:08:46 435.675 MHz FM
Oscar 11 20 Jun 22:19:16 22:23:25 46° 75° (ENE) 22:27:36 145.825 FM, Beacon 2401.500 USB
OPAL 20 Jun 22:25:11 22:28:10 16° 67° (ENE) 22:31:09 ?
RS-15 20 Jun 22:26:49 22:37:38 70° 248° (WSW) 22:48:26 29.354 - 29.394 USB, Beacon 29.352 USB
PANSAT 20 Jun 22:41:02 22:44:55 84° 356° (N) 22:48:49 not established
JAS-2 20 Jun 22:53:25 23:00:49 54° 259° (W) 23:07:34 435.800 - 435.900 CW/SSB, 435.910 FM
Saudisat 1A 20 Jun 22:57:25 23:01:06 24° 303° (WNW) 23:04:50 436.775 MHz
ISS 20 Jun 23:02:51 23:05:43 28° 43° (NE) 23:08:36 145.800 FM
PCSat 20 Jun 23:44:45 23:48:19 18° 105° (ESE) 23:51:53 145.825 MHz
HO-68 20 Jun 23:45:13 23:49:42 18° 264° (W) 23:54:13 435.675 MHz FM
Oscar 11 20 Jun 23:59:45 23:59:47 10° 266° (W) 23:59:49 145.825 FM, Beacon 2401.500 USB
OPAL 21 Jun 00:01:54 00:06:41 43° 258° (WSW) 00:11:26 ?
Sapphire 21 Jun 00:17:49 00:22:46 38° 108° (ESE) 00:27:44 437.095 MHz 1200 baud AX-25 AFSK
SO-50 21 Jun 00:20:09 00:24:02 25° 110° (ESE) 00:27:52 436.795 FM
PANSAT 21 Jun 00:21:25 00:25:19 80° 190° (S) 00:29:11 not established
ISS 21 Jun 00:40:13 00:42:12 15° 234° (SW) 00:44:11 145.800 FM
PCSat 21 Jun 01:26:15 01:31:20 42° 297° (WNW) 01:36:27 145.825 MHz
SO-50 21 Jun 02:00:28 02:04:30 27° 302° (WNW) 02:08:30 436.795 FM
PANSAT 21 Jun 02:02:02 02:05:29 31° 201° (SSW) 02:08:56 not established
Sapphire 21 Jun 02:02:11 02:06:14 21° 302° (WNW) 02:10:18 437.095 MHz 1200 baud AX-25 AFSK
Oscar 19 21 Jun 02:12:36 02:15:50 17° 95° (E) 02:19:03 437.125 CW, 437.150 USB
KITSAT 1 21 Jun 02:17:35 02:24:16 27° 55° (NE) 02:30:54 435.175 FM
ITAMSAT 1 21 Jun 02:40:34 02:44:58 27° 98° (E) 02:49:20 435.822 SSB
AO-27 21 Jun 02:42:02 02:46:33 29° 98° (E) 02:51:01 436.795 MHz FM
Oscar 16 21 Jun 02:56:27 03:01:32 64° 101° (ESE) 03:06:35 437.025 USB, Beacon 2401.1428
AO-Echo 21 Jun 03:01:44 03:04:46 15° 95° (E) 03:07:49 ?
Uribyol 2 21 Jun 03:13:03 03:18:14 66° 102° (ESE) 03:23:21 436.500 FM
UOSAT-12 21 Jun 03:29:53 03:34:11 48° 113° (ESE) 03:38:32 437.025 FM, 437.400 FM
Oscar 19 21 Jun 03:50:30 03:55:14 39° 287° (WNW) 03:59:57 437.125 CW, 437.150 USB
KITSAT 1 21 Jun 04:12:04 04:19:54 54° 250° (WSW) 04:27:43 435.175 FM
ITAMSAT 1 21 Jun 04:20:03 04:24:18 26° 290° (WNW) 04:28:32 435.822 SSB
AO-27 21 Jun 04:21:44 04:25:52 24° 290° (WNW) 04:29:59 436.795 MHz FM
Gurwin Techsat 1B 21 Jun 04:27:02 04:32:00 39° 99° (E) 04:36:55 435.225 FM
AO-Echo 21 Jun 04:38:40 04:43:38 46° 286° (WNW) 04:48:40 ?
Oscar 16 21 Jun 04:39:06 04:40:17 11° 294° (WNW) 04:41:28 437.025 USB, Beacon 2401.1428
Uribyol 2 21 Jun 04:55:55 04:57:04 11° 294° (WNW) 04:58:14 436.500 FM
Uosat F 21 Jun 04:59:44 05:04:48 84° 284° (WNW) 05:09:50 435.120 FM
UOSAT-12 21 Jun 05:12:22 05:14:34 13° 307° (NW) 05:16:47 437.025 FM, 437.400 FM
TMSAT-1 21 Jun 05:25:00 05:30:19 79° 284° (WNW) 05:35:36 436.925 FM
Gurwin Techsat 1B 21 Jun 06:08:00 06:11:37 19° 291° (WNW) 06:15:13 435.225 FM
AO-7 21 Jun 06:22:25 06:30:49 80° 106° (ESE) 06:39:09 29.400 - 29.500 MHz
STRAND 1 21 Jun 06:31:20 06:35:44 30° 71° (ENE) 06:40:09 ?
MaSat-1 21 Jun 07:00:28 07:01:05 11° 252° (WSW) 07:01:43 437.345 MHz
Saudisat 1A 21 Jun 07:30:37 07:34:50 39° 60° (ENE) 07:38:57 436.775 MHz
SO-67 21 Jun 08:07:41 08:09:02 12° 95° (E) 08:10:23 435.3500 MHz FM
STRAND 1 21 Jun 08:10:53 08:14:50 23° 263° (W) 08:18:49 ?
JAS-1B 21 Jun 08:13:52 08:19:41 39° 101° (ESE) 08:26:25 435.800 - 435.900 CW/SSB
AO-7 21 Jun 08:17:35 08:22:37 18° 301° (WNW) 08:27:39 29.400 - 29.500 MHz
Hamsat 21 Jun 08:27:56 08:32:18 78° 283° (WNW) 08:36:36 145.90 MHz

Developed and maintained by Chris Peat, Heavens-Above GmbH. Please read the updated FAQ before sending e-mail. Imprint. DLR
